Anchorage Merrill, AK

1:28 AM AKDT on March 30, 2017 (GMT -0800)
Merrill

Weather History for PAMR - February, 2014

Change the Weather History Date:

Monday, February 10, 2014

  Actual Average Record
Temperature  
Mean Temperature 13 °F -  
Max Temperature 21 °F 26 °F 35 °F (2016)
Min Temperature 3 °F 13 °F 3 °F (2014)
Degree Days  
Heating Degree Days 52    
Moisture  
Dew Point -2 °F    
Average Humidity 50    
Maximum Humidity 73    
Minimum Humidity 35    
Precipitation  
Precipitation 0.00 in - - ()
Sea Level Pressure  
Sea Level Pressure 29.91 in    
Wind  
Wind Speed 5 mph (NNE)    
Max Wind Speed 17 mph    
Max Gust Speed 25 mph    
Visibility 10 miles    
Events      
Averages and records for this station are not official NWS values.
T = Trace of Precipitation, MM = Missing Value Source: NWS Daily Summary

Daily Weather History Graph

Daily Weather History Graph

Search for Another Location

Airport or City:

Trip Planner

Search our weather history database for the weather conditions in past years. The results will help you decide how hot, cold, wet, or windy it might be!

Date:

Astronomy

Feb. 10, 2014 Rise Set
Actual Time 8:55 AM AKST 5:32 PM AKST
Civil Twilight 8:08 AM AKST 6:19 PM AKST
Nautical Twilight 7:17 AM AKST 7:11 PM AKST
Astronomical Twilight 6:27 AM AKST 8:01 PM AKST
Moon 1:39 PM AKST (2/10) 6:28 AM AKST (2/10)
Length of Visible Light 10h 11m
Length of Day
8h 37m
Waxing Gibbous, 85% of the Moon is Illuminated
Feb 10
Waxing Gibbous
Feb 14
Full
Feb 22
Last Quarter
Feb 28
New
Mar 8
First Quarter

Hourly Weather History & Observations

Time (AKST) Temp. Windchill Dew Point Humidity Pressure Visibility Wind Dir Wind Speed Gust Speed Precip Events Conditions
12:53 AM 5.0 °F -2.1 °F -2.0 °F 73% 29.86 in 10.0 mi East 3.5 mph - N/A   Mostly Cloudy
1:53 AM 7.0 °F - -0.0 °F 73% 29.87 in 10.0 mi Calm Calm - N/A   Overcast
3:53 AM 12.9 °F 6.9 °F -0.9 °F 54% 29.87 in 10.0 mi East 3.5 mph - N/A   Mostly Cloudy
4:53 AM 10.0 °F - 1.0 °F 67% 29.87 in 10.0 mi Calm Calm - N/A   Mostly Cloudy
5:53 AM 10.9 °F 4.7 °F -0.0 °F 61% 29.88 in 10.0 mi SE 3.5 mph - N/A   Partly Cloudy
6:53 AM 9.0 °F - 1.9 °F 73% 29.89 in 10.0 mi Calm Calm - N/A   Partly Cloudy
7:53 AM 16.0 °F 8.8 °F -0.0 °F 49% 29.89 in 10.0 mi North 4.6 mph - N/A   Partly Cloudy
8:53 AM 17.1 °F 4.3 °F -2.0 °F 43% 29.91 in 10.0 mi North 11.5 mph 19.6 mph N/A   Partly Cloudy
9:53 AM 18.0 °F 2.6 °F -4.0 °F 38% 29.92 in 9.0 mi North 17.3 mph 25.3 mph N/A   Clear
10:53 AM 19.0 °F 6.8 °F -2.0 °F 40% 29.94 in 10.0 mi North 11.5 mph 24.2 mph N/A   Clear
11:53 AM 19.0 °F 6.8 °F -2.9 °F 38% 29.95 in 10.0 mi North 11.5 mph 20.7 mph N/A   Scattered Clouds
12:53 PM 19.0 °F 6.8 °F -0.9 °F 42% 29.95 in 10.0 mi North 11.5 mph - N/A   Mostly Cloudy
1:53 PM 21.0 °F 8.6 °F -2.0 °F 36% 29.95 in 10.0 mi North 12.7 mph 18.4 mph N/A   Clear
2:53 PM 21.0 °F 9.3 °F -2.0 °F 36% 29.95 in 10.0 mi NNW 11.5 mph 19.6 mph N/A   Clear
3:53 PM 21.9 °F 9.8 °F -0.9 °F 37% 29.94 in 10.0 mi NNW 12.7 mph 19.6 mph N/A   Clear
4:53 PM 21.9 °F 9.8 °F -0.9 °F 37% 29.94 in 10.0 mi NNW 12.7 mph 19.6 mph N/A   Clear
5:53 PM 21.0 °F 14.6 °F -2.9 °F 35% 29.93 in 10.0 mi North 4.6 mph - N/A   Clear
6:53 PM 18.0 °F - -4.0 °F 38% 29.92 in 10.0 mi Calm Calm - N/A   Clear
7:53 PM 18.0 °F 11.1 °F -4.0 °F 38% 29.91 in 10.0 mi NNE 4.6 mph - N/A   Clear
8:53 PM 14.0 °F - -4.0 °F 45% 29.91 in 10.0 mi North - - N/A   Clear
9:53 PM 10.9 °F - -4.0 °F 51% 29.90 in 10.0 mi Calm Calm - N/A   Clear
10:53 PM 6.1 °F -0.9 °F -2.9 °F 67% 29.89 in 8.0 mi NE 3.5 mph - N/A   Clear
11:53 PM 3.9 °F -3.4 °F -4.0 °F 70% 29.88 in 9.0 mi ENE 3.5 mph - N/A   Clear